Regional Weather Roundup
Issued by NWS Newport/Morehead, NC

Current Version | Previous Version | Text Only | Print | Product List | Glossary Off
Versions: 1 2 3 4 5 6 7 8 9 10 11 12 13 14 15 16 17 18 19 20 21 22 23 24 25 26 27 28 29 30 31 32 33 34 35 36 37 38 39 40 41 42 43 44 45 46 47 48 49 50

000
ASUS42 KMHX 270812
RWRMHX
WEATHER ROUNDUP FOR EASTERN NORTH CAROLINA
NATIONAL WEATHER SERVICE NEWPORT/MOREHEAD CITY NC
400 AM EDT FRI MAR 27 2015

NOTE: "FAIR" INDICATES FEW OR NO CLOUDS BELOW 12,000 FEET
WITH NO SIGNIFICANT WEATHER AND/OR OBSTRUCTIONS TO VISIBILITY

NCZ015>017-031-032-045>047-102-103-270900-
NORTH COAST

CITY           SKY/WX    TMP DP  RH WIND       PRES   REMARKS
EDENTON        CLOUDY    61  57  85 SW8       29.69F
ELIZABETH CITY CLOUDY    63  57  81 SW14      29.67F
KITTY HAWK     CLOUDY    64  57  79 SW8G17    29.68F
MANTEO         CLOUDY    62  57  83 SW10      29.70F

$$

NCZ045>047-081-094-103-104-270900-
CENTRAL COAST

CITY           SKY/WX    TMP DP  RH WIND       PRES   REMARKS
FRISCO         CLOUDY    63  60  90 W12       29.70F
SWANQUARTER      N/A     61 N/A N/A S5        29.65F

$$

NCZ095-097-098-100-101-270900-
SOUTHERN COAST

CITY           SKY/WX    TMP DP  RH WIND       PRES   REMARKS
BEAUFORT       CLOUDY    61  60  97 SW5       29.71F
CEDAR ISLAND     N/A     66 N/A N/A S7        29.74F
JACKSONVILLE   LGT RAIN  65  61  87 SW7       29.71F
PINEY ISLAND   CLOUDY   N/A N/A N/A S6        29.71F
WILMINGTON     LGT RAIN  65  61  87 SW8       29.72F


$$

NCZ011>013-027>030-043-044-078>080-089-090>093-098-270900-
COASTAL PLAIN

CITY           SKY/WX    TMP DP  RH WIND       PRES   REMARKS
AHOSKIE        MOCLDY    62  56  80 S3        29.67F
CLINTON        CLOUDY    63  58  84 S3        29.69F
ELIZABETHTOWN  LGT RAIN  64  57  78 S6        29.70F
GOLDSBORO      CLOUDY    64  63  98 S2        29.66F
GREENVILLE     CLOUDY    63  55  77 SW7       29.71F
HAVELOCK       CLOUDY    66  59  78 SW13      29.72F
KENANSVILLE    CLOUDY    62  56  82 CALM      29.70F
KINSTON        DRIZZLE   63  58  82 S9        29.69F
NEW BERN       LGT RAIN  66  60  81 SW10      29.71F
RICHLANDS      CLOUDY    63  57  82 S12       29.71F
ROCKY MOUNT    CLOUDY    64  58  80 S6        29.67F
WASHINGTON     DRIZZLE   63  58  83 SW5       29.69F
WHITEVILLE     CLOUDY    64  58  82 S7        29.70F

$$

AMZ130-135-150-152-154-156-158-170-250-252-270-ANZ085-086-088-633-658-670-270900-
MARINE OBSERVATIONS

STATION/POSITION TIME  TEMP    WIND        PRES    WAVE   SWELL
                       AIR SEA DIR/SP/G            HT/PER HT/PER
                 (UTC) (F)     (DEG/KT/KT) (MB)    (FT/S) (FT/S)
CHESAPEAKE LIGHT 0700   59     220/ 25/ 25 1004.8
64 E VA BEACH    0750   56 51  200/ 14/ 16 1004.4    7/ 8   7/ 8
DUCK             0700   64     210/ 12/ 15 1005.0
2 E DUCK         0711      42                N/A     4/ 8   2/11
10 NE DUCK       NOT AVBL
OREGON INLET     0700   60     210/ 12/ 14 1006.4
HATTERAS CG      0700   65                   N/A
CAPE LOOKOUT     0800   65     220/  8/ 13 1005.8
BEAUFORT LAB     0700   62                   N/A
27 SE WRIGHTSVLE 0700   64 64  230/ 10/ 14 1008.9
5 SE WRIGHTSVLE  0700   60 57  230/  6/ 10 1006.9
225 S CAPE HAT   0750   68 69  210/ 16/ 17 1011.2    9/ 8   5/ 8
41 SE CHARLESTON 0750   71 70  230/ 27/ 33 1005.1    5/ 8   3/ 8

$$



USA.gov is the U.S. government's official web portal to all federal, state and local government web resources and services.